Temp
-14 -13 -13 -12 -12 -12 -11 -10 -9 -7 -7 -5 -3 -1 1 4 10 10 10 9 9 9
-14 -14 -14 -13 -13 -12 -11 -11 -10 -8 -8 -6 -5 -2 -1 3 9 9 9 9 9 9
-15 -14 -14 -14 -13 -13 -12 -11 -10 -8 -8 -7 -5 -3 -1 1 7 9 9 8 8 8
-15 -15 -14 -14 -14 -13 -13 -12 -11 -9 -9 -8 -5 -4 -2 -0 5 8 8 8 8 8
-15 -15 -14 -13 -14 -14 -13 -12 -11 -10 -10 -8 -6 -5 -3 -1 4 8 7 7 7 7
-15 -15 -14 -13 -13 -14 -13 -12 -11 -10 -10 -8 -7 -5 -3 -1 2 8 7 7 7 6
-16 -15 -15 -13 -13 -13 -13 -13 -12 -10 -9 -8 -7 -5 -3 -1 2 7 7 7 7 6
-15 -15 -14 -13 -12 -12 -13 -12 -12 -10 -9 -7 -6 -5 -3 -1 1 6 7 6 6 6
-15 -15 -14 -13 -12 -13 -13 -12 -11 -10 -9 -7 -6 -5 -2 -1 -0 4 6 6 6 6
-16 -15 -15 -14 -13 -13 -13 -12 -11 -10 -8 -7 -6 -4 -2 -1 -0 2 5 6 5 5
-16 -16 -15 -15 -14 -12 -13 -13 -11 -10 -8 -7 -6 -3 -1 -1 -0 2 4 5 5 5
-16 -16 -16 -15 -15 -13 -13 -13 -11 -9 -8 -8 -6 -4 -2 -1 -1 0 1 3 4 4
-16 -16 -16 -17 -16 -14 -13 -13 -11 -9 -8 -8 -7 -5 -2 -2 -2 -1 -0 0 2 3
-16 -16 -17 -16 -15 -15 -14 -13 -12 -10 -9 -8 -8 -6 -4 -2 -2 -2 -2 -1 0 2
Height
843 837 830 822 814 805 797 790 779 771 767 758 756 752 749 743 743 744 749 753 756 760
841 834 827 819 811 804 793 785 778 773 765 757 754 746 742 739 738 736 740 745 749 754
838 831 824 816 808 800 790 781 772 763 760 753 744 737 735 734 730 728 732 737 742 747
834 827 820 814 806 797 788 779 771 763 755 749 736 731 729 730 725 721 725 730 736 741
831 824 817 809 802 794 784 776 768 760 751 741 734 730 730 724 711 713 717 721 728 733
828 821 813 804 797 790 781 771 762 755 749 738 734 725 721 714 708 705 708 713 719 726
826 818 810 801 793 785 777 768 760 752 743 737 725 715 708 703 699 698 701 706 709 717
823 815 807 799 790 782 774 765 757 747 734 722 718 711 704 701 696 692 692 697 703 708
820 812 804 796 788 780 770 759 750 740 731 723 713 710 705 696 696 686 684 688 696 702
819 811 803 794 784 777 769 758 751 741 732 720 711 703 696 694 688 682 680 681 688 696
818 811 803 795 786 776 770 764 757 743 730 723 714 701 692 684 682 678 676 680 682 688
817 810 803 795 787 777 769 762 751 742 735 724 714 703 693 685 681 679 680 680 681 683
815 809 803 797 789 780 772 764 753 743 733 725 712 702 692 684 681 681 676 680 681 684
813 806 801 796 789 782 772 762 755 748 740 731 718 707 698 690 688 684 681 678 682 686
Wind_Speed
25 24 25 27 30 31 30 32 36 39 39 35 33 30 28 21 34 35 36 35 30 28
26 26 27 29 29 29 33 36 35 36 37 36 33 30 29 27 30 35 37 37 36 34
26 25 26 27 30 31 34 36 38 38 37 37 33 30 28 32 28 36 35 34 35 33
28 28 27 26 28 30 34 35 36 36 38 37 33 31 30 33 28 36 36 37 37 37
30 29 29 31 30 29 33 36 35 35 35 35 34 31 31 33 22 38 36 38 38 38
32 32 34 35 35 32 33 36 35 34 34 33 34 32 32 30 28 38 38 41 41 39
33 34 34 35 38 37 35 34 35 34 34 33 33 32 28 28 29 36 41 41 43 45
34 33 35 35 38 39 35 34 33 35 35 35 33 29 25 28 28 27 39 39 41 46
33 35 36 36 37 39 38 37 37 37 34 35 34 28 25 22 25 19 36 36 38 42
32 34 35 36 36 39 37 37 36 37 35 37 37 29 24 21 19 14 27 36 37 37
30 32 34 35 34 38 36 33 32 35 37 36 34 34 18 17 17 12 15 28 37 40
28 30 32 33 33 35 35 34 36 33 34 35 36 36 24 16 9 12 9 17 31 37
26 28 28 26 31 30 32 30 32 34 34 33 36 37 36 22 18 12 7 11 17 30
24 26 22 24 26 24 28 31 29 31 32 33 36 38 38 29 20 13 11 7 14 17
Wind_Direction
330 327 325 321 320 316 317 314 323 325 321 320 313 301 286 289 222 212 207 206 197 190
329 328 323 321 321 315 316 315 322 321 317 316 309 309 293 278 236 209 205 204 197 188
327 326 325 323 321 319 317 322 324 323 317 313 313 313 299 279 252 205 201 196 190 185
332 330 328 325 322 320 318 321 321 321 315 311 316 312 305 281 261 202 196 194 188 182
335 334 331 332 330 324 320 322 321 321 313 311 311 308 298 287 297 202 192 187 184 180
339 337 338 337 337 332 325 326 325 321 312 314 307 306 299 301 294 207 195 189 183 179
338 339 338 341 342 339 335 323 322 323 317 315 311 308 307 303 296 211 197 192 187 184
340 341 343 343 343 343 335 328 326 324 328 327 313 307 304 302 282 233 194 192 189 189
343 345 345 344 345 345 337 337 332 333 329 324 319 306 300 301 282 275 191 186 188 190
344 344 345 345 345 343 339 337 332 334 331 330 325 319 310 298 271 306 200 188 187 184
341 343 345 344 344 342 339 332 329 332 335 331 330 337 321 313 268 295 229 197 189 187
336 340 343 342 338 342 338 333 336 336 336 338 339 351 3 1 333 252 261 210 195 187
330 334 337 336 335 336 338 329 335 337 342 343 347 351 3 4 2 345 279 238 205 195
326 329 331 329 336 334 335 338 337 341 343 345 353 351 356 3 357 349 331 268 232 204